Time,TemperatureF,DewpointF,PressureIn,WindDirection,WindDirectionDegrees,WindSpeedMPH,WindSpeedGustMPH,Humidity,HourlyPrecipIn,Conditions,Clouds,dailyrainin,SoftwareType,DateUTC
2013-07-07 00:01:00,63.0,58.0,29.75,WSW,254,0.0,0.0,85,0.00,,,0.00,,2013-07-07 07:01:00,
2013-07-07 00:11:00,62.0,57.0,29.75,WSW,254,0.0,0.0,85,0.00,,,0.00,,2013-07-07 07:11:00,
2013-07-07 00:22:00,62.0,57.0,29.76,WSW,254,0.0,0.0,85,0.00,,,0.00,,2013-07-07 07:22:00,
2013-07-07 00:33:00,62.0,57.0,29.76,WSW,254,0.0,0.0,85,0.00,,,0.00,,2013-07-07 07:33:00,
2013-07-07 00:43:00,62.0,58.0,29.76,WSW,254,0.0,0.0,86,0.00,,,0.00,,2013-07-07 07:43:00,
2013-07-07 00:52:00,62.0,58.0,29.75,WSW,254,0.0,0.0,86,0.00,,,0.00,,2013-07-07 07:52:00,
2013-07-07 01:02:00,61.0,57.0,29.75,WSW,254,0.0,0.0,86,0.00,,,0.00,,2013-07-07 08:02:00,
2013-07-07 01:12:00,61.0,57.0,29.75,WSW,254,0.0,0.0,87,0.00,,,0.00,,2013-07-07 08:12:00,
2013-07-07 01:21:00,61.0,57.0,29.75,WSW,254,0.0,0.0,88,0.00,,,0.00,,2013-07-07 08:21:00,
2013-07-07 01:33:00,61.0,57.0,29.75,WSW,254,0.0,0.0,88,0.00,,,0.00,,2013-07-07 08:33:00,
2013-07-07 01:43:00,61.0,57.0,29.75,WSW,254,0.0,0.0,88,0.00,,,0.00,,2013-07-07 08:43:00,
2013-07-07 01:53:00,61.0,57.0,29.75,WSW,254,0.0,0.0,88,0.00,,,0.00,,2013-07-07 08:53:00,
2013-07-07 02:02:00,61.0,57.0,29.75,WSW,254,0.0,0.0,88,0.00,,,0.00,,2013-07-07 09:02:00,
2013-07-07 02:12:00,61.0,58.0,29.75,WSW,254,0.0,0.0,89,0.00,,,0.00,,2013-07-07 09:12:00,
2013-07-07 02:22:00,61.0,58.0,29.75,WSW,254,0.0,0.0,89,0.00,,,0.00,,2013-07-07 09:22:00,
2013-07-07 02:34:00,61.0,58.0,29.74,WSW,254,0.0,1.0,89,0.00,,,0.00,,2013-07-07 09:34:00,
2013-07-07 02:43:00,60.0,57.0,29.74,WSW,254,0.0,0.0,89,0.00,,,0.00,,2013-07-07 09:43:00,
2013-07-07 02:53:00,60.0,57.0,29.74,WSW,254,0.0,0.0,89,0.00,,,0.00,,2013-07-07 09:53:00,
2013-07-07 03:02:00,60.0,57.0,29.74,WSW,254,0.0,0.0,90,0.00,,,0.00,,2013-07-07 10:02:00,
2013-07-07 03:11:00,60.0,57.0,29.74,WSW,254,0.0,0.0,90,0.00,,,0.00,,2013-07-07 10:11:00,
2013-07-07 03:22:00,60.0,57.0,29.74,WSW,254,0.0,0.0,90,0.00,,,0.00,,2013-07-07 10:22:00,
2013-07-07 03:32:00,60.0,57.0,29.74,WSW,254,0.0,0.0,90,0.00,,,0.00,,2013-07-07 10:32:00,
2013-07-07 03:43:00,60.0,57.0,29.74,WSW,254,0.0,0.0,90,0.00,,,0.00,,2013-07-07 10:43:00,
2013-07-07 03:52:00,60.0,57.0,29.74,WSW,254,0.0,0.0,90,0.00,,,0.00,,2013-07-07 10:52:00,
2013-07-07 04:02:00,60.0,57.0,29.74,WSW,254,0.0,0.0,90,0.00,,,0.00,,2013-07-07 11:02:00,
2013-07-07 04:11:00,60.0,57.0,29.74,WSW,254,0.0,0.0,90,0.00,,,0.00,,2013-07-07 11:11:00,
2013-07-07 04:22:00,60.0,57.0,29.74,WSW,254,0.0,0.0,91,0.00,,,0.00,,2013-07-07 11:22:00,
2013-07-07 04:33:00,60.0,57.0,29.74,WSW,254,0.0,0.0,91,0.00,,,0.00,,2013-07-07 11:33:00,
2013-07-07 04:43:00,60.0,57.0,29.74,WSW,254,0.0,0.0,91,0.00,,,0.00,,2013-07-07 11:43:00,
2013-07-07 04:53:00,60.0,57.0,29.74,WSW,254,0.0,0.0,91,0.00,,,0.00,,2013-07-07 11:53:00,
2013-07-07 05:02:00,60.0,57.0,29.74,WSW,254,0.0,0.0,91,0.00,,,0.00,,2013-07-07 12:02:00,
2013-07-07 05:11:00,60.0,57.0,29.74,WSW,254,0.0,0.0,91,0.00,,,0.00,,2013-07-07 12:11:00,
2013-07-07 05:22:00,59.0,56.0,29.74,WSW,254,0.0,0.0,91,0.00,,,0.00,,2013-07-07 12:22:00,
2013-07-07 05:34:00,59.0,56.0,29.75,WSW,254,0.0,0.0,91,0.00,,,0.00,,2013-07-07 12:34:00,
2013-07-07 05:43:00,60.0,58.0,29.75,WSW,254,0.0,1.0,92,0.00,,,0.00,,2013-07-07 12:43:00,
2013-07-07 05:52:00,60.0,58.0,29.75,WSW,254,0.0,0.0,92,0.00,,,0.00,,2013-07-07 12:52:00,
2013-07-07 06:02:00,60.0,58.0,29.75,WSW,254,0.0,1.0,92,0.00,,,0.00,,2013-07-07 13:02:00,
2013-07-07 06:11:00,60.0,58.0,29.75,WSW,254,0.0,0.0,92,0.00,,,0.00,,2013-07-07 13:11:00,
2013-07-07 06:34:00,60.0,58.0,29.76,WSW,254,0.0,1.0,92,0.00,,,0.00,,2013-07-07 13:34:00,
2013-07-07 06:43:00,61.0,59.0,29.76,WSW,254,0.0,0.0,92,0.00,,,0.00,,2013-07-07 13:43:00,
2013-07-07 06:52:00,61.0,58.0,29.77,WSW,254,0.0,0.0,91,0.00,,,0.00,,2013-07-07 13:52:00,
2013-07-07 07:02:00,61.0,58.0,29.77,WSW,254,0.0,2.0,91,0.00,,,0.00,,2013-07-07 14:02:00,
2013-07-07 07:11:00,61.0,58.0,29.77,WSW,254,0.0,2.0,91,0.00,,,0.00,,2013-07-07 14:11:00,
2013-07-07 07:22:00,61.0,58.0,29.77,West,260,0.0,3.0,91,0.00,,,0.00,,2013-07-07 14:22:00,
2013-07-07 07:33:00,61.0,58.0,29.77,South,181,0.0,2.0,91,0.00,,,0.00,,2013-07-07 14:33:00,
2013-07-07 07:43:00,61.0,58.0,29.77,West,278,0.0,5.0,91,0.00,,,0.00,,2013-07-07 14:43:00,
2013-07-07 07:53:00,61.0,58.0,29.78,NE,51,0.0,2.0,91,0.00,,,0.00,,2013-07-07 14:53:00,
2013-07-07 08:02:00,62.0,59.0,29.78,ENE,57,0.0,2.0,91,0.00,,,0.00,,2013-07-07 15:02:00,
2013-07-07 08:11:00,62.0,59.0,29.78,ENE,57,1.0,3.0,90,0.00,,,0.00,,2013-07-07 15:11:00,
2013-07-07 08:22:00,62.0,59.0,29.78,ENE,72,0.0,2.0,89,0.00,,,0.00,,2013-07-07 15:22:00,
2013-07-07 08:33:00,62.0,58.0,29.79,SSE,150,2.0,4.0,88,0.00,,,0.00,,2013-07-07 15:33:00,
2013-07-07 08:43:00,63.0,59.0,29.79,SE,140,0.0,3.0,88,0.00,,,0.00,,2013-07-07 15:43:00,
2013-07-07 08:52:00,63.0,59.0,29.79,SSE,157,1.0,3.0,87,0.00,,,0.00,,2013-07-07 15:52:00,
2013-07-07 09:01:00,64.0,59.0,29.79,ESE,115,2.0,4.0,85,0.00,,,0.00,,2013-07-07 16:01:00,
2013-07-07 09:11:00,64.0,59.0,29.79,SSE,157,2.0,6.0,83,0.00,,,0.00,,2013-07-07 16:11:00,
2013-07-07 09:22:00,65.0,59.0,29.80,SSE,157,2.0,6.0,82,0.00,,,0.00,,2013-07-07 16:22:00,
2013-07-07 09:43:00,64.0,58.0,29.80,ENE,67,1.0,5.0,81,0.00,,,0.00,,2013-07-07 16:43:00,
2013-07-07 09:53:00,64.0,59.0,29.80,East,89,2.0,6.0,83,0.00,,,0.00,,2013-07-07 16:53:00,
2013-07-07 10:01:00,64.0,59.0,29.80,East,90,1.0,6.0,85,0.00,,,0.00,,2013-07-07 17:01:00,
2013-07-07 10:11:00,65.0,60.0,29.80,NNE,13,2.0,5.0,84,0.00,,,0.00,,2013-07-07 17:11:00,
2013-07-07 10:22:00,65.0,60.0,29.80,East,86,3.0,6.0,83,0.00,,,0.00,,2013-07-07 17:22:00,
2013-07-07 10:34:00,65.0,60.0,29.80,SE,127,2.0,5.0,83,0.00,,,0.00,,2013-07-07 17:34:00,
2013-07-07 10:43:00,66.0,61.0,29.80,ENE,69,2.0,7.0,83,0.00,,,0.00,,2013-07-07 17:43:00,
2013-07-07 10:53:00,66.0,61.0,29.80,ENE,78,0.0,7.0,83,0.00,,,0.00,,2013-07-07 17:53:00,
2013-07-07 11:01:00,67.0,61.0,29.80,ESE,108,2.0,5.0,80,0.00,,,0.00,,2013-07-07 18:01:00,
2013-07-07 11:11:00,65.0,59.0,29.80,East,91,1.0,7.0,82,0.00,,,0.00,,2013-07-07 18:11:00,
2013-07-07 11:22:00,65.0,59.0,29.80,South,173,5.0,7.0,81,0.00,,,0.00,,2013-07-07 18:22:00,
2013-07-07 11:33:00,67.0,61.0,29.81,East,98,2.0,11.0,81,0.00,,,0.00,,2013-07-07 18:33:00,
2013-07-07 11:43:00,67.0,59.0,29.81,ESE,116,4.0,8.0,76,0.00,,,0.00,,2013-07-07 18:43:00,
2013-07-07 11:52:00,68.0,60.0,29.81,ESE,108,3.0,9.0,75,0.00,,,0.00,,2013-07-07 18:52:00,
2013-07-07 12:01:00,66.0,58.0,29.82,South,174,2.0,8.0,76,0.00,,,0.00,,2013-07-07 19:01:00,
2013-07-07 12:11:00,65.0,58.0,29.82,East,82,4.0,7.0,77,0.00,,,0.00,,2013-07-07 19:11:00,
2013-07-07 12:22:00,68.0,60.0,29.81,ESE,111,5.0,7.0,76,0.00,,,0.00,,2013-07-07 19:22:00,
2013-07-07 12:33:00,67.0,59.0,29.81,SSW,198,3.0,7.0,75,0.00,,,0.00,,2013-07-07 19:33:00,
2013-07-07 12:43:00,67.0,58.0,29.81,ESE,115,3.0,6.0,74,0.00,,,0.00,,2013-07-07 19:43:00,
2013-07-07 12:54:00,67.0,58.0,29.80,SE,144,4.0,7.0,74,0.00,,,0.00,,2013-07-07 19:54:00,
2013-07-07 13:02:00,68.0,60.0,29.80,ESE,111,4.0,7.0,76,0.00,,,0.00,,2013-07-07 20:02:00,
2013-07-07 13:11:00,68.0,59.0,29.80,East,97,3.0,9.0,72,0.00,,,0.00,,2013-07-07 20:11:00,
2013-07-07 13:22:00,71.0,60.0,29.80,SSE,161,5.0,9.0,68,0.00,,,0.00,,2013-07-07 20:22:00,
2013-07-07 13:33:00,71.0,59.0,29.80,ESE,114,2.0,7.0,67,0.00,,,0.00,,2013-07-07 20:33:00,
2013-07-07 13:42:00,70.0,59.0,29.80,SE,144,3.0,7.0,69,0.00,,,0.00,,2013-07-07 20:42:00,
2013-07-07 13:52:00,72.0,60.0,29.80,East,82,3.0,6.0,65,0.00,,,0.00,,2013-07-07 20:52:00,
2013-07-07 14:02:00,71.0,59.0,29.79,ESE,104,3.0,11.0,66,0.00,,,0.00,,2013-07-07 21:02:00,
2013-07-07 14:11:00,72.0,59.0,29.79,SE,142,2.0,9.0,64,0.00,,,0.00,,2013-07-07 21:11:00,
2013-07-07 14:22:00,73.0,59.0,29.79,East,88,4.0,9.0,62,0.00,,,0.00,,2013-07-07 21:22:00,
2013-07-07 14:33:00,71.0,59.0,29.78,South,188,3.0,7.0,67,0.00,,,0.00,,2013-07-07 21:33:00,
2013-07-07 14:43:00,71.0,59.0,29.78,ESE,119,4.0,7.0,65,0.00,,,0.00,,2013-07-07 21:43:00,
2013-07-07 14:53:00,72.0,59.0,29.78,ESE,111,3.0,10.0,63,0.00,,,0.00,,2013-07-07 21:53:00,
2013-07-07 15:01:00,73.0,60.0,29.78,SE,128,2.0,6.0,63,0.00,,,0.00,,2013-07-07 22:01:00,
2013-07-07 15:11:00,73.0,58.0,29.78,ESE,119,4.0,9.0,60,0.00,,,0.00,,2013-07-07 22:11:00,
2013-07-07 15:22:00,73.0,60.0,29.78,South,179,3.0,9.0,64,0.00,,,0.00,,2013-07-07 22:22:00,
2013-07-07 15:33:00,74.0,60.0,29.78,SSE,150,4.0,7.0,61,0.00,,,0.00,,2013-07-07 22:33:00,
2013-07-07 15:43:00,74.0,59.0,29.78,SSW,193,4.0,6.0,59,0.00,,,0.00,,2013-07-07 22:43:00,
2013-07-07 15:53:00,72.0,58.0,29.78,East,98,4.0,9.0,61,0.00,,,0.00,,2013-07-07 22:53:00,
2013-07-07 16:01:00,73.0,59.0,29.77,East,90,1.0,9.0,61,0.00,,,0.00,,2013-07-07 23:01:00,
2013-07-07 16:11:00,74.0,58.0,29.77,SSE,153,5.0,9.0,58,0.00,,,0.00,,2013-07-07 23:11:00,
2013-07-07 16:22:00,75.0,59.0,29.77,SE,146,3.0,8.0,58,0.00,,,0.00,,2013-07-07 23:22:00,
2013-07-07 16:33:00,74.0,58.0,29.76,SE,134,5.0,7.0,58,0.00,,,0.00,,2013-07-07 23:33:00,
2013-07-07 16:43:00,74.0,60.0,29.76,ESE,116,3.0,7.0,61,0.00,,,0.00,,2013-07-07 23:43:00,
2013-07-07 16:52:00,74.0,60.0,29.76,SE,133,4.0,8.0,61,0.00,,,0.00,,2013-07-07 23:52:00,
2013-07-07 17:01:00,73.0,59.0,29.75,ESE,122,2.0,6.0,62,0.00,,,0.00,,2013-07-08 00:01:00,
2013-07-07 17:11:00,73.0,59.0,29.75,East,99,4.0,7.0,62,0.00,,,0.00,,2013-07-08 00:11:00,
2013-07-07 17:33:00,75.0,60.0,29.75,SE,139,2.0,5.0,59,0.00,,,0.00,,2013-07-08 00:33:00,
2013-07-07 17:43:00,74.0,60.0,29.75,South,169,2.0,7.0,62,0.00,,,0.00,,2013-07-08 00:43:00,
2013-07-07 17:53:00,74.0,59.0,29.75,ESE,123,3.0,6.0,59,0.00,,,0.00,,2013-07-08 00:53:00,
2013-07-07 18:01:00,74.0,59.0,29.74,ESE,107,3.0,5.0,60,0.00,,,0.00,,2013-07-08 01:01:00,
2013-07-07 18:11:00,74.0,59.0,29.74,SE,128,1.0,5.0,60,0.00,,,0.00,,2013-07-08 01:11:00,
2013-07-07 18:21:00,73.0,59.0,29.74,South,177,1.0,5.0,61,0.00,,,0.00,,2013-07-08 01:21:00,
2013-07-07 18:32:00,74.0,60.0,29.74,SE,125,1.0,5.0,62,0.00,,,0.00,,2013-07-08 01:32:00,
2013-07-07 18:42:00,73.0,59.0,29.74,SE,128,3.0,5.0,62,0.00,,,0.00,,2013-07-08 01:42:00,
2013-07-07 18:52:00,73.0,59.0,29.73,SE,140,0.0,4.0,61,0.00,,,0.00,,2013-07-08 01:52:00,
2013-07-07 19:02:00,72.0,60.0,29.73,NE,55,1.0,3.0,65,0.00,,,0.00,,2013-07-08 02:02:00,
2013-07-07 19:11:00,71.0,60.0,29.73,NNE,26,0.0,3.0,68,0.00,,,0.00,,2013-07-08 02:11:00,
2013-07-07 19:22:00,72.0,60.0,29.74,NW,321,1.0,4.0,65,0.00,,,0.00,,2013-07-08 02:22:00,
2013-07-07 19:33:00,72.0,60.0,29.73,NW,319,1.0,4.0,65,0.00,,,0.00,,2013-07-08 02:33:00,
2013-07-07 19:42:00,72.0,59.0,29.73,NW,313,0.0,3.0,64,0.00,,,0.00,,2013-07-08 02:42:00,
2013-07-07 19:52:00,72.0,60.0,29.74,NW,311,0.0,3.0,65,0.00,,,0.00,,2013-07-08 02:52:00,
2013-07-07 20:01:00,72.0,59.0,29.74,NW,311,0.0,1.0,64,0.00,,,0.00,,2013-07-08 03:01:00,
2013-07-07 20:11:00,72.0,60.0,29.74,NW,311,0.0,0.0,65,0.00,,,0.00,,2013-07-08 03:11:00,
2013-07-07 20:22:00,71.0,59.0,29.74,NW,311,0.0,0.0,66,0.00,,,0.00,,2013-07-08 03:22:00,
2013-07-07 20:33:00,71.0,59.0,29.74,NW,311,0.0,1.0,66,0.00,,,0.00,,2013-07-08 03:33:00,
2013-07-07 20:42:00,70.0,59.0,29.74,SSW,194,1.0,2.0,67,0.00,,,0.00,,2013-07-08 03:42:00,
2013-07-07 20:52:00,69.0,59.0,29.74,SSW,195,0.0,2.0,70,0.00,,,0.00,,2013-07-08 03:52:00,
2013-07-07 21:01:00,69.0,60.0,29.74,SSW,194,0.0,0.0,72,0.00,,,0.00,,2013-07-08 04:01:00,
2013-07-07 21:11:00,68.0,59.0,29.74,SSW,195,0.0,1.0,72,0.00,,,0.00,,2013-07-08 04:11:00,
2013-07-07 21:22:00,68.0,59.0,29.74,SSW,194,0.0,1.0,73,0.00,,,0.00,,2013-07-08 04:22:00,
2013-07-07 21:33:00,68.0,59.0,29.74,SSW,195,0.0,0.0,73,0.00,,,0.00,,2013-07-08 04:33:00,
2013-07-07 21:42:00,67.0,57.0,29.75,SSW,195,0.0,1.0,71,0.00,,,0.00,,2013-07-08 04:42:00,
2013-07-07 21:52:00,67.0,58.0,29.75,SSW,195,0.0,2.0,72,0.00,,,0.00,,2013-07-08 04:52:00,
2013-07-07 22:01:00,67.0,58.0,29.75,SSW,195,0.0,1.0,74,0.00,,,0.00,,2013-07-08 05:01:00,
2013-07-07 22:11:00,66.0,58.0,29.75,SSW,195,0.0,2.0,76,0.00,,,0.00,,2013-07-08 05:11:00,
2013-07-07 22:21:00,66.0,59.0,29.76,SSW,195,0.0,1.0,77,0.00,,,0.00,,2013-07-08 05:21:00,
2013-07-07 22:33:00,66.0,59.0,29.77,SSW,194,0.0,0.0,77,0.00,,,0.00,,2013-07-08 05:33:00,
2013-07-07 22:43:00,66.0,59.0,29.77,SSW,195,0.0,0.0,79,0.00,,,0.00,,2013-07-08 05:43:00,
2013-07-07 22:53:00,65.0,58.0,29.77,SSW,195,0.0,0.0,79,0.00,,,0.00,,2013-07-08 05:53:00,
2013-07-07 23:01:00,65.0,59.0,29.78,SSW,195,0.0,1.0,80,0.00,,,0.00,,2013-07-08 06:01:00,
2013-07-07 23:11:00,65.0,59.0,29.78,SSW,195,0.0,1.0,81,0.00,,,0.00,,2013-07-08 06:11:00,
2013-07-07 23:22:00,65.0,59.0,29.78,SSW,195,0.0,2.0,81,0.00,,,0.00,,2013-07-08 06:22:00,
2013-07-07 23:33:00,64.0,58.0,29.79,SSW,195,1.0,2.0,81,0.00,,,0.00,,2013-07-08 06:33:00,
2013-07-07 23:42:00,65.0,59.0,29.79,SSW,195,1.0,2.0,82,0.00,,,0.00,,2013-07-08 06:42:00,
2013-07-07 23:52:00,64.0,58.0,29.79,SSW,195,0.0,2.0,82,0.00,,,0.00,,2013-07-08 06:52:00,